User: anonymous   Login
Location: Unspecified
(0.0000°N, 0.0000°E)
Time: 16:06:46
(UTC+00:00)
Language:

AIST 1 - Orbit

View from above orbital plane
View from above orbital plane
View from above satellite
View from above satellite

Ground track
Ground track

The orbit data is extracted from the following two-line orbital elements,

1 39492U 13078C   19081.38733542  .00000176  00000-0  16469-4 0  9994
2 39492  82.4170 287.7644 0021568  66.6914 293.6575 14.87798582283855
Epoch (UTC): 22 March 2019 09:17:45
Eccentricity: 0.0021568
inclination: 82.4170°
perigee height: 590 km
apogee height: 620 km
right ascension of ascending node: 287.7644°
argument of perigee: 66.6914°
revolutions per day: 14.87798582
mean anomaly at epoch: 293.6575°
orbit number at epoch: 28385

The dashed part of the orbit path shows where the satellite is in the earth's shadow,  

DLR